Location: Corcelles
(46.1547°N, 4.7234°E)
Time: 20:46:13
(UTC+00:00)

CZ-4C R/B - Pass Details

Date: 14 July 2020
Orbit: 632 x 1370 km, 63.4° (Epoch: 14 August)

Event Time Altitude Azimuth Distance (km) Brightness Sun altitude
Rises 00:15:43 0° 313° (NW) 3,948 6.2 -21.9°
Reaches altitude 10° 00:18:41 10° 302° (WNW) 3,093 5.4 -21.8°
Maximum altitude 00:24:49 28° 248° (WSW) 2,200 4.0 -21.7°
Enters shadow 00:26:33 26° 228° (SW) 2,324 4.0 -21.6°
